Location: Doverdale
(52.2833°N, 2.2000°W)
Time: 13:53:57
(UTC+00:00)

NOAA 11 - Pass Details

Date: 29 October 2020
Orbit: 833 x 849 km, 98.4° (Epoch: 28 November)

Event Time Altitude Azimuth Distance (km) Brightness Sun altitude
Rises 17:20:22 0° 151° (SSE) 3,383 7.2 -6.0°
Reaches altitude 10° 17:22:44 10° 147° (SSE) 2,450 6.4 -6.4°
Maximum altitude 17:28:05 61° 69° (ENE) 951 4.2 -7.2°
Drops below altitude 10° 17:33:26 10° 351° (N) 2,459 6.6 -8.0°
Sets 17:35:49 0° 348° (NNW) 3,396 7.4 -8.3°
